[[{"header":{"parameterUnit":"m.s-1","parameterCategory":1,"la1":30.2992,"la2":30.254,"lo1":-89.0895,"lo2":-89.0443,"dy":0.0025,"dx":0.0025,"nx":19,"ny":19,"refTime":"2026-05-01T09:00:00:Z","depth":0,"parameterNumber":2,"parameterNumberName":"U-component_of_WINDS"},"data":[0,0,0,-3.9412,-3.9413,-3.9484,-3.9484,-3.9598,-3.96,0,0,0,0,0,0,0,0,0,0,0,-3.9406,-3.9408,-3.9411,-3.9414,-3.9484,-3.9484,-3.9598,-3.96,0,0,0,0,0,0,0,0,0,0,0,-3.9406,-3.9407,-3.9409,-3.9414,-3.9484,-3.9484,-3.9598,-3.9536,0,0,0,0,0,0,0,0,0,0,-3.9463,-3.9474,-3.9407,-3.9409,-3.9415,-3.9484,-3.9484,-3.9533,-3.954,-3.9577,0,-3.9616,0,-3.961,-3.9609,-3.961,0,0,0,-3.9402,-3.9468,-3.9473,-3.9409,-3.9415,-3.9484,-3.9449,-3.9536,-3.9545,-3.9587,-3.9617,-3.962,-3.9612,-3.961,-3.9611,-3.9869,-3.9871,0,0,-3.9398,-3.9427,-3.9467,-3.9479,-3.9471,-3.9447,-3.9451,-3.9541,-3.9575,-3.9617,-3.9623,-3.9614,-3.9611,-3.9612,-3.9868,-3.987,0,0,0,-3.9395,-3.9425,-3.9427,-3.9475,-3.9486,-3.9449,-3.9454,-3.9571,-3.9569,-3.9624,-3.9615,-3.9612,-3.9613,-3.9866,-3.9869,-3.9987,0,0,0,-3.9392,-3.9423,-3.9426,-3.9445,-3.9485,-3.953,-3.9483,-3.9563,-3.9572,-3.9614,-3.9612,-3.9615,-3.9864,-3.9867,-3.998,-4.0039,0,0,0,-3.9396,-3.9423,-3.9439,-3.9446,-3.9478,-3.9527,-3.9531,-3.9564,-3.9568,-3.961,-3.9615,-3.9862,-3.9867,-3.9973,-4.0028,-4.0118,0,0,0,-3.941,-3.9542,-3.9442,-3.9585,-3.9477,-3.96,-3.953,-3.9619,-3.9669,-3.9612,-3.9864,-3.9868,-3.9971,-4.0021,-4.0111,-4.0201,-4.0241,0,0,-3.9593,-3.9565,-3.9647,-3.956,-3.9708,-3.9587,-3.9752,-3.9769,-3.9744,-3.9829,-3.9835,-3.9982,-4.0027,-4.0116,-4.0448,-4.048,0,0,0,-3.9715,-3.9776,-3.9808,-3.9858,-3.9875,-3.9894,-3.9883,-3.9889,-3.996,-3.9794,-4.0036,-4.0062,-4.0113,-4.0155,-4.0182,-4.0226,-3.9888,-3.9888,-3.9887,-4.0019,-3.9982,-4.0117,-4.0089,-4.0138,-4.0125,-4.0161,-4.0167,-4.0114,-4.0172,-4.0198,-4.0404,-4.0454,-4.0474,-4.0519,-4.024,-4.024,-4.0241,-4.0241,-4.0287,-4.0368,-4.0294,-4.04,-4.0359,-4.0446,-4.0438,-4.0398,-4.0474,-4.038,-4.0424,-4.0329,-4.051,-4.0548,-4.0249,-4.0248,-4.0247,-4.0246,-4.0245,-4.0485,-4.0517,-4.0523,-4.0591,-4.0648,-4.0613,-4.069,-4.0649,-4.0611,-4.0653,-4.0678,-4.0676,-4.0671,-4.0667,-4.0668,-4.0669,-4.0669,-4.067,-4.067,-4.0689,-4.0691,-4.0762,-4.0791,-4.0818,-4.0848,-4.0836,-4.0861,-4.0878,-4.0843,-4.0843,-4.0786,-4.0533,-4.0473,-4.0681,-4.0679,-4.0678,-4.0677,-4.0676,-4.0981,-4.0908,-4.1017,-4.1044,-4.1075,-4.1135,-4.1081,-4.1136,-4.1151,-4.119,-4.1123,-4.0942,-4.091,-4.0888,-4.0838,-4.1129,-4.1129,-4.1129,-4.1129,-4.115,-4.1129,-4.1232,-4.1279,-4.1319,-4.1282,-4.1406,-4.1397,-4.1377,-4.1383,-4.1334,-4.1263,-4.1242,-4.1223,-4.1194,-4.1147,-4.1509,-4.151,-4.151,-4.1329,-4.131,-4.1425,-4.1405,-4.1425,-4.1444,-4.156,-4.1616,-4.1577,-4.1525,-4.1388,-4.1372,-4.1256,-4.122,-4.1169,-4.1124,-4.1036,0,0]},{"header":{"parameterUnit":"m.s-1","parameterCategory":1,"la1":30.2992,"la2":30.254,"lo1":-89.0895,"lo2":-89.0443,"dy":0.0025,"dx":0.0025,"nx":19,"ny":19,"refTime":"2026-05-01T09:00:00:Z","depth":0,"parameterNumber":3,"parameterNumberName":"V-component_of_WINDS"},"data":[0,0,0,-5.3951,-5.3952,-5.3983,-5.3983,-5.4022,-5.4022,0,0,0,0,0,0,0,0,0,0,0,-5.3944,-5.3944,-5.3951,-5.3952,-5.3983,-5.3983,-5.4022,-5.4022,0,0,0,0,0,0,0,0,0,0,0,-5.3943,-5.3944,-5.3944,-5.3952,-5.3983,-5.3983,-5.4022,-5.3998,0,0,0,0,0,0,0,0,0,0,-5.3968,-5.3963,-5.3944,-5.3944,-5.3952,-5.3983,-5.3983,-5.3997,-5.4,-5.4008,0,-5.4018,0,-5.4021,-5.4025,-5.4025,0,0,0,-5.395,-5.3961,-5.3968,-5.3944,-5.3952,-5.3983,-5.3968,-5.3998,-5.4001,-5.4012,-5.4018,-5.402,-5.4021,-5.4025,-5.4025,-5.4081,-5.4082,0,0,-5.3949,-5.395,-5.3966,-5.397,-5.3967,-5.3967,-5.3969,-5.4,-5.4007,-5.4018,-5.4021,-5.4022,-5.4025,-5.4026,-5.4081,-5.4082,0,0,0,-5.3945,-5.3949,-5.3955,-5.3968,-5.3974,-5.3968,-5.3971,-5.4006,-5.4008,-5.4021,-5.4022,-5.4026,-5.4026,-5.4081,-5.4081,-5.4098,0,0,0,-5.3944,-5.3946,-5.3954,-5.3955,-5.3974,-5.3991,-5.3975,-5.4005,-5.4009,-5.4022,-5.4026,-5.4027,-5.408,-5.4081,-5.4097,-5.4105,0,0,0,-5.3941,-5.3946,-5.3951,-5.3955,-5.3969,-5.399,-5.3994,-5.4006,-5.401,-5.4025,-5.4027,-5.408,-5.4081,-5.4095,-5.4103,-5.4118,0,0,0,-5.3938,-5.3967,-5.3951,-5.3983,-5.3968,-5.4001,-5.3994,-5.4018,-5.4033,-5.4026,-5.4081,-5.4081,-5.4095,-5.4102,-5.4117,-5.4131,-5.4137,0,0,-5.3974,-5.3971,-5.3989,-5.3977,-5.4012,-5.3996,-5.4033,-5.4046,-5.4046,-5.4069,-5.4071,-5.4097,-5.4103,-5.4118,-5.4173,-5.4178,0,0,0,-5.4001,-5.4014,-5.4023,-5.4038,-5.4048,-5.4057,-5.4064,-5.4068,-5.4087,-5.4059,-5.4107,-5.4111,-5.412,-5.4126,-5.413,-5.4136,-5.4085,-5.4085,-5.4085,-5.4054,-5.4052,-5.4082,-5.4083,-5.4097,-5.4103,-5.4113,-5.4119,-5.4115,-5.4126,-5.4132,-5.4166,-5.4173,-5.4176,-5.4183,-5.414,-5.414,-5.414,-5.414,-5.4105,-5.4122,-5.4114,-5.4139,-5.4136,-5.4157,-5.4162,-5.4157,-5.4175,-5.4161,-5.4169,-5.4153,-5.4181,-5.4187,-5.4142,-5.4141,-5.4141,-5.4141,-5.4141,-5.4138,-5.4146,-5.4151,-5.4169,-5.4183,-5.4183,-5.42,-5.4197,-5.4195,-5.4202,-5.4207,-5.4207,-5.4205,-5.4205,-5.4205,-5.4205,-5.4206,-5.4206,-5.4206,-5.417,-5.4175,-5.419,-5.4201,-5.4208,-5.4217,-5.4222,-5.4229,-5.4235,-5.4231,-5.4231,-5.4223,-5.4185,-5.4175,-5.4207,-5.4207,-5.4207,-5.4207,-5.4207,-5.4221,-5.4208,-5.4231,-5.4238,-5.4249,-5.4262,-5.4258,-5.4271,-5.4277,-5.4284,-5.4275,-5.4247,-5.4243,-5.424,-5.4231,-5.4276,-5.4276,-5.4276,-5.4276,-5.4247,-5.4245,-5.4266,-5.4277,-5.4287,-5.4285,-5.4308,-5.4311,-5.4311,-5.4314,-5.4307,-5.4295,-5.4292,-5.429,-5.4285,-5.4277,-5.4333,-5.4333,-5.4333,-5.4277,-5.4275,-5.4296,-5.4296,-5.4304,-5.431,-5.4331,-5.4343,-5.4341,-5.4335,-5.4315,-5.4313,-5.4294,-5.4288,-5.4281,-5.4275,-5.4259,0,0]}]]